Regional Weather Roundup
Issued by NWS

Home | Current Version | Previous Version | Graphics & Text | Print | Product List | Glossary On
Versions: 1 2 3 4 5 6 7 8 9 10 11 12 13 14 15 16 17 18 19 20 21 22 23 24 25 26 27 28 29 30 31 32 33 34 35 36 37 38 39 40 41 42 43 44 45 46 47 48 49 50
308
ASUS45 KBOI 091510
RWRID

IDAHO REGIONAL WEATHER ROUNDUP
NATIONAL WEATHER SERVICE BOISE ID
800 AM MST TUE FEB 09 2016

NOTE: "FAIR" INDICATES FEW OR NO CLOUDS BELOW 12000 FEET
WITH NO SIGNIFICANT WEATHER AND/OR OBSTRUCTIONS TO VISIBILITY

IDZ012-014-091600-
SOUTHWEST IDAHO


CITY           SKY/WX    TMP DP  RH WIND       PRES   REMARKS
BOISE          PTCLDY    27  23  85 S8        30.60S WCI  19
CALDWELL       CLOUDY    29  27  92 SE14      30.62F WCI  18
MOUNTAIN HOME  FOG       27  26  97 SE15      30.60S VSB 1   WCI  15
$$

IDZ016-017-091600-
SOUTHCENTRAL IDAHO


CITY           SKY/WX    TMP DP  RH WIND       PRES   REMARKS
BURLEY         CLOUDY    26  25  96 NE12      30.56S FOG     WCI  16
JEROME         FOG       22  20  92 E16       30.56F VSB 1/2 WCI   8
TWIN FALLS     FOG       28  26  92 NE9       30.56F VSB 1/4 WCI  19
$$

IDZ019>023-091600-
SOUTHEAST IDAHO


CITY           SKY/WX    TMP DP  RH WIND       PRES   REMARKS
IDAHO FALLS    FOG        8   4  83 N5        30.61S VSB 1/4 WCI   0
POCATELLO      FOG       20  18  92 NE6       30.60S VSB 1/2 WCI  12
REXBURG        CLOUDY    12  10  92 CALM      30.59F
$$

IDZ006-010-011-018-031-032-091600-
CENTRAL IDAHO MOUNTAINS


CITY           SKY/WX    TMP DP  RH WIND       PRES   REMARKS
MCCALL         FOG       17  14  88 CALM      30.50S VSB 1/4
HAILEY         CLEAR     25  19  80 NW9       30.56S WCI  15
STANLEY          N/A     14   8  77 E3        30.61F
SALMON         CLOUDY     5   3  92 SE5       30.66S WCI  -4
CHALLIS        FOG        5   1  83 CALM      30.61F VSB 3/4
$$

IDZ002-004-006-007-026-091600-
NORTHERN IDAHO


CITY           SKY/WX    TMP DP  RH WIND       PRES   REMARKS
LEWISTON       CLEAR     38  32  79 E6        30.44F WCI  33
LOWELL           N/A     34  31  88 VRB5      30.56F WCI  30
COEUR D`ALENE  CLEAR     32  28  86 NE13      30.44F WCI  22
MULLAN PASS    CLEAR     37  29  72 S7        30.44F WCI  32
$$




USA.gov is the U.S. government's official web portal to all federal, state and local government web resources and services.